Back to catalog

AETHER-9

AliveCommunicationsSSO
NORAD 67380·PAYLOAD·🇨🇦 Canada

Launched Jan 11, 2026 from Vandenberg Space Force Base

Loading…

Next Passes (next 24 hours)

TLE

FreshSource: Space-Track

Epoch: Sep 14, 2026, 09:48 UTC

1 67380U 26004T   26257.40897330  .00000441  00000-0  56716-4 0  9990
2 67380  97.8072 254.2809 0001229 163.4517 196.6739 14.85840213 36534

Track AETHER-9 in real time with AllMySat

Download on the App Store